Probability
48 45 39 32 32 35 26 23 29 26 23 23 23 19 16 16 6 10 6 6 3 0 0 0 0 0 0 0 0 0 0 0 0 0 0 0 0 0 0 0 3 0 3
52 55 48 52 48 32 29 23 26 23 19 16 13 6 6 3 0 0 0 3 3 0 0 3 0 0 0 0 0 0 0 0 0 0 0 0 0 0 0 0 0 0 3
45 52 55 48 42 39 26 26 26 23 23 19 13 6 3 3 0 0 0 0 3 3 0 0 0 0 0 0 0 0 0 0 0 0 0 0 0 0 0 0 0 0 0
39 42 45 48 39 35 29 19 26 23 23 19 13 10 3 3 0 0 0 0 0 3 0 0 0 0 0 0 0 0 0 0 0 0 0 0 0 0 0 0 0 0 0
39 35 39 42 42 39 35 19 23 19 19 16 13 10 6 0 0 0 0 0 0 0 3 0 0 0 0 0 0 0 0 0 0 0 0 0 0 0 0 0 0 0 0
32 29 32 29 35 32 35 19 19 16 16 13 6 6 3 0 0 0 0 0 0 0 0 0 0 0 0 0 0 0 0 0 0 0 0 0 0 0 0 0 0 0 0
26 26 26 32 32 29 35 26 23 26 19 13 10 6 6 0 0 0 0 0 0 0 0 0 0 0 0 0 0 0 0 0 0 0 0 0 0 0 0 0 0 0 0
32 26 26 35 29 26 32 29 23 16 13 13 10 6 6 3 3 0 0 0 0 0 0 0 0 3 0 0 0 0 0 0 0 0 0 0 0 0 0 0 0 0 0
29 26 26 26 26 29 26 23 23 13 13 6 6 6 3 3 6 3 0 0 0 0 0 0 3 3 3 0 0 0 0 0 0 0 0 0 0 0 0 0 0 0 0
29 26 32 23 23 29 26 19 23 26 26 13 6 13 6 10 6 3 3 3 0 0 3 3 3 3 3 0 0 0 3 3 3 0 3 3 0 0 0 0 0 0 0
26 26 23 16 23 19 19 26 26 29 26 26 19 16 13 10 6 6 3 3 3 3 3 3 3 3 0 0 0 3 3 3 3 0 0 0 0 0 0 0 0 0 0
16 19 19 23 19 19 23 26 26 23 29 32 26 23 23 13 16 13 6 6 3 0 3 0 0 0 0 0 0 0 3 3 3 0 0 0 0 0 0 0 0 0 0
13 13 16 23 23 16 19 23 26 26 32 32 32 29 23 23 19 13 3 3 3 0 0 0 0 0 0 0 0 0 0 0 0 0 0 0 0 0 0 0 0 0 0
19 13 10 13 19 19 16 16 26 26 29 32 35 32 32 19 13 13 6 3 6 3 0 0 0 0 0 0 0 0 0 0 0 0 0 0 0 0 0 0 0 0 0
16 16 10 0 6 13 13 10 16 19 23 32 29 23 23 19 16 13 3 3 0 3 0 0 0 0 0 0 0 0 0 0 0 0 0 0 0 0 0 0 0 0 0
16 13 13 6 10 13 13 13 13 23 26 26 26 19 16 16 13 6 6 6 6 3 0 0 0 0 0 0 0 0 0 0 0 0 0 0 0 0 0 0 0 0 0
19 19 23 13 16 16 10 13 13 19 19 19 16 13 13 10 10 6 10 6 6 0 0 0 0 0 0 0 0 0 0 0 0 0 0 0 0 0 0 0 0 0 0
19 19 16 23 16 6 6 3 10 6 13 13 13 13 10 10 10 6 10 3 0 0 0 0 0 0 0 0 0 0 0 0 0 0 0 0 0 0 0 0 0 0 0
10 10 16 23 19 13 6 6 10 10 10 13 13 10 10 10 6 6 0 0 0 0 0 0 0 0 0 0 0 0 0 0 0 0 0 0 0 0 0 0 0 0 0
6 10 13 19 13 13 13 13 13 10 10 10 10 10 3 3 3 0 0 0 0 0 0 0 0 0 0 0 0 0 0 0 0 0 0 0 0 0 0 0 0 0 0
10 10 13 13 13 10 13 13 13 6 6 3 3 3 0 0 0 0 0 0 0 0 0 0 0 0 0 0 0 0 0 0 0 0 0 0 0 0 0 0 0 0 0
13 10 10 13 6 6 10 6 3 3 3 0 0 0 0 0 0 0 0 0 0 0 0 0 0 0 0 0 0 0 0 0 0 0 0 0 0 0 0 0 0 0 0
10 6 10 6 3 3 3 3 3 3 0 0 0 0 0 0 0 0 0 0 0 0 0 0 0 0 0 0 0 0 0 0 0 0 0 0 0 0 0 0 0 0 0
3 3 3 3 0 0 0 3 0 0 0 0 0 0 0 0 0 0 0 0 0 0 0 0 0 0 0 0 0 0 0 0 0 0 0 0 0 0 0 0 0 0 0
0 0 0 0 0 0 0 0 0 0 0 0 0 0 0 0 0 0 0 0 0 0 0 0 0 0 0 0 0 0 0 0 0 0 0 0 0 0 0 0 0 0 0
0 0 0 0 0 0 0 0 0 0 0 0 0 0 0 0 0 0 0 0 0 0 0 0 0 0 0 0 0 0 0 0 0 0 0 0 0 0 0 0 0 0 0
Height
5849 5847 5845 5844 5843 5842 5841 5841 5842 5844 5846 5848 5850 5852 5855 5857 5860 5862 5864 5867 5868 5870 5872 5874 5876 5877 5878 5878 5879 5880 5880 5880 5880 5880 5880 5880 5879 5879 5879 5878 5878 5878 5877
5848 5845 5844 5843 5842 5841 5840 5840 5842 5843 5845 5847 5848 5851 5853 5855 5857 5860 5862 5865 5867 5869 5871 5873 5874 5876 5877 5878 5879 5879 5880 5880 5880 5880 5880 5880 5881 5880 5879 5879 5878 5878 5878
5846 5843 5842 5843 5842 5841 5842 5842 5842 5842 5844 5846 5848 5850 5851 5853 5855 5858 5861 5863 5865 5867 5869 5871 5873 5875 5876 5877 5878 5879 5879 5880 5880 5880 5881 5881 5880 5880 5880 5879 5879 5878 5878
5846 5844 5843 5842 5842 5842 5842 5842 5842 5843 5844 5845 5847 5849 5850 5852 5854 5857 5859 5861 5863 5866 5868 5870 5872 5873 5875 5876 5877 5878 5879 5879 5880 5880 5880 5880 5880 5880 5880 5879 5879 5878 5878
5846 5845 5844 5843 5842 5842 5842 5842 5842 5843 5844 5845 5846 5848 5849 5851 5853 5855 5857 5859 5862 5864 5866 5868 5870 5872 5873 5874 5875 5876 5877 5878 5878 5879 5879 5879 5879 5879 5879 5879 5878 5878 5877
5846 5845 5843 5842 5841 5841 5841 5841 5842 5842 5843 5844 5845 5846 5848 5850 5852 5853 5856 5858 5860 5863 5865 5867 5868 5870 5871 5873 5874 5875 5875 5876 5876 5877 5877 5877 5878 5878 5878 5877 5877 5876 5876
5845 5844 5842 5841 5841 5841 5841 5841 5841 5841 5842 5842 5843 5845 5846 5848 5850 5852 5854 5856 5858 5860 5862 5864 5866 5867 5869 5870 5871 5872 5873 5873 5874 5874 5875 5875 5875 5876 5875 5875 5875 5875 5874
5844 5843 5841 5841 5840 5840 5840 5840 5840 5840 5841 5841 5842 5843 5845 5847 5848 5850 5852 5854 5856 5858 5860 5862 5863 5865 5866 5868 5869 5870 5870 5871 5871 5872 5872 5872 5872 5872 5872 5872 5872 5872 5872
5843 5842 5841 5841 5840 5839 5839 5839 5839 5839 5839 5840 5841 5842 5843 5844 5846 5848 5850 5852 5854 5855 5857 5859 5860 5861 5863 5864 5865 5866 5867 5867 5868 5868 5868 5868 5868 5869 5869 5869 5868 5868 5868
5841 5841 5840 5840 5839 5839 5838 5838 5838 5838 5838 5838 5839 5839 5841 5842 5843 5845 5847 5849 5851 5853 5854 5855 5857 5858 5859 5860 5861 5862 5863 5863 5863 5864 5864 5864 5864 5864 5864 5864 5864 5864 5863
5840 5840 5839 5839 5838 5838 5837 5837 5836 5836 5836 5836 5836 5837 5838 5839 5840 5842 5844 5846 5848 5849 5850 5852 5853 5854 5855 5856 5857 5858 5858 5858 5859 5859 5859 5859 5858 5858 5858 5858 5858 5858 5857
5838 5838 5838 5837 5837 5836 5836 5836 5835 5834 5834 5834 5834 5834 5835 5836 5838 5839 5841 5843 5844 5845 5847 5848 5849 5850 5851 5852 5852 5853 5853 5853 5854 5853 5853 5853 5853 5852 5852 5852 5851 5851 5850
5836 5835 5835 5836 5835 5834 5834 5834 5833 5832 5832 5832 5832 5832 5833 5833 5835 5836 5838 5839 5841 5841 5843 5844 5845 5845 5846 5847 5847 5848 5848 5848 5848 5848 5847 5847 5847 5846 5845 5845 5844 5844 5843
5833 5832 5832 5833 5833 5832 5832 5831 5831 5830 5830 5829 5829 5829 5830 5830 5831 5833 5834 5835 5836 5837 5838 5839 5840 5840 5840 5841 5842 5842 5842 5842 5842 5841 5841 5841 5840 5840 5839 5838 5837 5836 5835
5831 5830 5830 5830 5830 5830 5829 5829 5829 5828 5827 5827 5826 5827 5827 5827 5828 5829 5830 5831 5831 5832 5833 5834 5835 5835 5835 5835 5836 5836 5836 5836 5836 5835 5835 5834 5833 5833 5832 5830 5829 5828 5826
5828 5828 5828 5828 5828 5828 5827 5827 5826 5826 5825 5824 5824 5824 5824 5824 5825 5825 5825 5826 5827 5827 5828 5829 5829 5829 5829 5830 5830 5830 5830 5830 5829 5829 5828 5827 5826 5825 5824 5822 5821 5819 5817
5824 5824 5824 5824 5825 5825 5824 5824 5823 5823 5822 5822 5821 5821 5821 5821 5821 5822 5822 5822 5822 5823 5823 5823 5824 5824 5823 5824 5824 5824 5824 5823 5823 5822 5821 5820 5818 5817 5815 5814 5812 5810 5808
5819 5820 5820 5820 5821 5821 5820 5820 5820 5819 5818 5818 5818 5818 5819 5819 5818 5818 5818 5818 5818 5818 5818 5818 5818 5818 5818 5818 5818 5817 5817 5816 5815 5814 5813 5811 5810 5808 5806 5805 5803 5800 5798
5813 5815 5815 5816 5816 5816 5816 5816 5816 5815 5815 5815 5815 5815 5815 5815 5815 5814 5814 5814 5813 5812 5812 5812 5812 5812 5812 5811 5811 5810 5810 5808 5807 5806 5804 5803 5801 5799 5797 5795 5793 5790 5787
5807 5808 5808 5809 5810 5811 5811 5811 5811 5811 5811 5811 5810 5810 5810 5810 5810 5810 5809 5808 5808 5807 5807 5806 5806 5805 5805 5805 5804 5803 5802 5801 5799 5797 5796 5794 5792 5789 5787 5784 5781 5778 5775
5800 5800 5801 5802 5803 5804 5804 5805 5805 5805 5805 5805 5805 5804 5804 5804 5804 5804 5804 5803 5803 5802 5801 5800 5799 5799 5798 5797 5796 5795 5794 5792 5790 5788 5786 5784 5782 5779 5776 5772 5769 5765 5762
5792 5792 5793 5794 5795 5796 5797 5798 5798 5799 5800 5800 5800 5799 5799 5799 5798 5798 5798 5797 5797 5796 5794 5793 5792 5791 5790 5789 5788 5787 5785 5783 5781 5779 5776 5773 5770 5767 5764 5760 5756 5752 5748
5785 5785 5786 5787 5788 5790 5791 5791 5792 5793 5793 5793 5794 5793 5793 5793 5792 5792 5792 5791 5790 5788 5787 5786 5785 5784 5782 5781 5779 5778 5776 5773 5771 5768 5764 5761 5758 5754 5750 5746 5741 5736 5731
5777 5778 5779 5780 5781 5783 5784 5785 5786 5786 5786 5786 5787 5787 5787 5786 5786 5785 5785 5784 5783 5781 5779 5778 5777 5776 5774 5772 5770 5768 5765 5762 5759 5756 5752 5748 5744 5739 5735 5730 5725 5720 5714
5769 5770 5771 5773 5774 5776 5777 5778 5779 5779 5780 5779 5780 5780 5780 5779 5779 5778 5777 5776 5775 5774 5772 5770 5769 5767 5765 5763 5760 5757 5754 5750 5747 5742 5738 5733 5728 5723 5719 5713 5708 5702 5696
5761 5762 5764 5765 5766 5768 5769 5771 5772 5772 5773 5772 5772 5773 5773 5772 5771 5771 5770 5768 5767 5766 5764 5762 5760 5757 5755 5752 5749 5746 5742 5738 5734 5729 5724 5719 5713 5708 5703 5697 5691 5685 5679
Wind_Speed
15 13 10 7 6 5 2 3 4 5 7 9 10 12 13 15 16 16 16 14 12 11 11 11 10 9 8 7 6 5 4 4 4 4 4 4 4 3 3 3 2 3 3
14 12 8 5 4 4 1 4 4 5 7 8 10 12 13 16 17 17 16 15 13 12 12 12 11 9 9 8 7 6 5 5 4 4 4 3 3 3 3 2 2 2 2
12 10 6 4 4 3 1 2 2 4 7 9 10 11 11 12 15 17 16 15 14 13 13 13 12 10 10 9 8 7 6 5 4 4 3 3 3 3 2 2 2 1 1
10 8 5 4 4 3 2 0 2 4 6 9 10 11 12 13 14 15 16 15 14 14 13 13 12 11 10 10 9 8 7 5 5 4 4 3 3 2 2 2 1 1 1
9 7 6 5 3 3 2 1 2 4 6 8 10 11 12 14 14 14 14 14 14 14 14 13 13 12 11 10 10 9 8 7 6 6 5 5 5 4 3 3 3 3 3
8 7 6 5 4 3 2 1 2 4 6 8 10 11 12 13 14 14 14 14 15 14 14 14 14 13 12 12 11 10 9 9 8 7 7 7 7 6 5 5 5 5 5
7 7 6 5 4 4 3 1 2 4 6 7 10 11 12 12 13 14 15 15 14 15 15 15 15 14 14 13 12 12 11 11 10 10 9 9 9 9 8 8 8 7 8
6 6 5 4 4 4 3 2 2 4 6 8 9 12 13 13 14 14 15 15 15 15 15 15 15 15 15 15 14 13 13 13 13 12 12 12 12 11 11 11 11 11 11
5 5 5 4 4 4 3 2 2 3 5 8 10 11 13 15 15 15 16 16 16 16 16 16 16 17 17 16 16 16 15 15 15 15 15 15 14 14 14 14 14 14 14
4 5 4 4 4 3 3 3 3 3 5 7 10 12 13 15 15 16 16 16 16 16 16 16 17 17 17 17 17 18 18 18 18 18 18 18 18 18 18 18 18 17 17
4 4 4 5 4 4 4 4 4 4 5 6 8 12 13 14 16 17 17 17 17 17 17 17 17 17 18 19 19 19 19 19 19 20 20 21 21 21 22 21 21 21 21
5 4 4 5 5 4 4 5 5 5 5 6 8 10 12 14 16 17 17 18 17 18 18 17 18 19 19 20 20 20 21 21 21 21 22 22 23 23 24 24 25 24 24
7 5 5 6 6 6 6 6 5 5 5 6 8 10 11 14 16 16 17 18 19 19 19 19 19 19 20 21 21 22 22 22 23 23 23 24 24 24 25 26 27 27 27
9 6 5 6 7 8 8 7 6 6 6 6 7 9 11 13 16 17 18 18 19 20 21 20 19 20 20 21 22 23 23 23 23 23 23 24 25 26 26 27 28 28 29
11 8 7 8 9 9 9 8 8 8 8 7 7 8 10 12 13 15 17 18 18 19 20 20 20 20 21 22 23 23 23 23 23 23 24 24 24 25 26 27 28 29 30
13 12 12 10 10 10 10 10 10 9 9 9 9 9 11 12 13 14 17 19 19 19 20 20 20 20 21 21 21 22 22 22 23 24 25 25 27 28 28 29 30 31 32
15 14 14 13 13 12 12 11 11 10 10 10 10 10 10 12 13 13 15 17 18 18 19 20 20 20 21 21 21 22 23 24 25 26 27 27 28 29 31 32 32 33 34
17 16 16 16 15 14 13 13 12 11 11 11 11 12 12 12 13 14 15 17 19 19 19 20 20 21 21 21 22 23 24 26 26 27 29 29 30 31 32 33 34 35 36
20 19 19 18 17 16 15 15 14 13 13 13 13 13 14 14 15 15 16 16 16 18 19 19 21 22 22 22 23 24 25 26 28 29 30 30 32 33 34 34 36 37 39
23 22 21 21 19 18 18 18 17 17 16 16 16 16 16 16 16 17 17 17 17 17 19 20 21 22 23 24 25 26 27 28 29 30 31 32 33 35 36 37 39 40 42
26 25 24 23 21 22 21 20 19 19 18 18 18 18 18 18 18 19 19 19 20 20 21 23 24 25 25 26 26 27 28 29 31 32 33 35 36 38 39 40 42 43 45
28 27 25 23 23 22 21 21 21 21 20 20 20 20 20 20 20 21 21 21 22 24 24 26 26 26 26 28 29 29 30 31 33 34 36 37 39 41 42 44 45 47 49
28 27 25 25 24 24 23 23 22 21 21 21 20 20 21 22 21 22 22 23 24 25 25 26 26 28 29 29 30 31 33 34 36 37 39 41 43 44 46 48 49 51 52
29 29 27 26 26 26 25 24 22 21 21 21 21 22 22 23 22 23 23 23 24 25 26 27 28 29 30 31 32 34 35 37 38 40 42 44 46 48 49 50 52 53 54
28 27 26 26 26 25 24 24 24 23 23 23 23 23 24 24 24 24 24 25 26 26 27 28 29 31 31 32 34 36 38 39 41 43 45 46 48 49 51 52 53 54 54
26 25 25 25 25 24 24 24 24 24 24 25 24 24 24 24 25 25 25 26 26 27 29 30 31 32 33 34 36 38 40 42 43 45 46 47 48 50 51 52 52 52 52
Wind_Direction
333 335 334 339 339 335 290 202 195 185 184 192 199 198 197 195 196 199 199 199 200 199 196 193 193 190 185 180 171 162 150 138 132 133 130 128 126 124 122 122 130 135 137
334 335 332 342 340 341 315 197 187 189 189 190 195 194 195 197 198 197 197 197 196 198 197 195 195 193 189 186 181 175 166 160 157 149 140 142 136 127 125 126 131 140 144
340 338 338 354 3 7 55 161 183 187 192 194 193 192 190 194 195 194 195 197 198 199 198 198 199 197 195 192 189 188 184 182 180 174 164 162 157 144 136 133 136 152 160
349 348 356 4 31 39 43 24 198 184 187 195 192 192 194 193 193 195 197 198 199 199 200 202 202 200 200 199 199 200 200 200 203 203 203 199 194 186 174 170 163 183 234
1 6 1 2 21 20 18 347 205 190 196 197 192 193 194 196 196 196 200 201 200 201 203 205 206 205 204 206 208 210 213 217 221 225 224 222 222 221 217 221 226 233 240
356 1 1 358 13 357 349 340 200 197 198 198 197 194 194 197 201 201 202 204 204 205 208 210 212 213 213 217 220 222 226 230 235 239 237 237 239 239 239 244 249 252 255
355 356 360 5 360 344 327 276 218 205 207 202 199 197 199 202 204 205 205 207 208 210 213 215 217 220 221 224 228 232 235 240 245 248 248 249 249 250 252 256 261 263 265
358 351 354 351 344 337 330 291 239 225 217 210 207 207 208 208 210 209 210 209 213 215 217 219 221 224 226 231 235 239 242 246 250 252 254 257 256 256 258 260 263 266 268
349 345 347 338 340 340 335 301 265 248 237 222 221 215 213 215 213 213 213 213 215 220 222 225 227 228 232 237 241 243 246 250 253 256 258 260 262 262 262 264 265 268 269
344 342 338 329 331 340 337 308 285 281 264 241 227 220 218 218 217 216 216 218 220 224 227 230 233 235 238 241 245 247 252 255 258 261 262 262 263 265 267 268 268 269 271
316 325 334 320 318 324 321 306 288 277 263 244 228 223 222 221 219 217 220 222 225 229 232 237 238 240 241 245 247 250 255 258 261 264 265 265 267 269 269 270 270 271 272
298 299 314 311 305 306 305 301 290 274 260 244 234 229 226 223 222 221 222 223 226 230 235 239 242 246 247 249 251 253 256 260 263 266 267 268 270 271 272 273 273 273 274
284 287 302 302 301 300 294 292 287 283 270 253 242 234 231 226 223 223 224 227 231 234 238 243 249 251 251 252 253 255 258 262 264 266 267 267 269 272 273 274 275 275 275
295 291 299 304 299 299 291 284 284 288 276 262 250 246 240 235 229 231 233 234 238 242 243 248 252 252 253 256 257 258 260 262 264 266 268 270 270 272 274 276 277 277 277
292 293 301 299 293 296 296 286 287 291 283 271 266 260 254 246 240 240 240 240 244 247 247 250 254 255 256 258 260 261 262 265 266 268 270 271 274 276 276 276 278 278 278
289 293 291 292 290 292 292 287 288 285 283 275 265 263 261 254 250 249 249 248 249 249 249 250 255 258 259 261 263 262 264 266 268 270 272 274 276 278 278 279 278 279 278
285 287 285 284 283 283 284 284 284 278 275 274 268 263 262 260 258 256 254 255 255 255 251 253 257 261 262 262 263 265 266 267 269 271 274 276 279 280 279 279 279 279 279
277 280 281 279 277 277 279 281 281 278 276 277 277 272 265 265 267 269 267 266 264 260 260 260 261 262 264 265 265 266 267 269 271 274 276 277 278 280 280 280 281 281 281
271 274 277 276 274 273 273 273 272 272 274 277 277 273 269 271 271 272 268 268 270 266 264 263 263 264 267 269 270 271 272 273 274 276 277 277 278 280 281 282 282 282 282
268 267 267 269 267 267 270 270 270 268 270 274 274 270 269 269 272 274 273 273 272 268 266 268 269 269 270 271 272 274 275 276 277 278 279 280 281 282 283 283 283 283 282
266 266 266 264 263 264 265 266 267 267 269 272 274 272 270 273 276 278 281 280 277 274 272 272 271 271 273 275 276 277 278 279 279 280 281 282 284 284 284 284 283 283 283
266 266 262 262 261 260 261 263 264 266 268 270 273 275 276 278 277 280 282 282 280 278 277 276 275 275 277 279 279 280 281 282 283 283 284 284 285 286 285 285 284 284 284
265 264 260 260 260 260 261 265 268 268 269 271 274 277 279 281 281 281 282 282 281 280 280 278 279 280 282 283 282 283 285 285 285 286 286 286 287 287 286 286 286 286 286
264 263 259 259 260 260 263 265 265 269 271 272 274 275 279 281 280 282 283 281 280 279 279 279 282 284 285 284 284 285 287 288 288 288 288 288 288 288 288 288 288 288 288
261 259 257 258 260 261 263 264 267 270 271 272 273 276 279 280 279 281 281 281 280 281 284 284 285 286 286 285 286 288 289 290 291 291 291 291 290 291 292 292 292 291 291
259 258 258 257 259 260 262 264 265 268 270 271 272 276 279 280 281 281 281 282 281 282 283 284 285 287 288 289 290 291 291 292 293 293 293 293 293 294 294 294 294 294 294